Regional Weather Roundup
Issued by NWS

Home | Current Version | Previous Version | Text Only | Print | Product List | Glossary On
Versions: 1 2 3 4 5 6 7 8 9 10 11 12 13 14 15 16 17 18 19 20 21 22 23 24 25 26 27 28 29 30 31 32 33 34 35 36 37 38 39 40 41 42 43 44 45 46 47 48 49 50
000
ASUS44 KLUB 221410
RWRTX
WEST TEXAS WEATHER ROUNDUP
NATIONAL WEATHER SERVICE LUBBOCK TX
800 AM CST SAT NOV 22 2014

NOTE: "FAIR" INDICATES FEW OR NO CLOUDS BELOW 12,000 FEET WITH NO
SIGNIFICANT WEATHER AND/OR OBSTRUCTIONS TO VISIBILITY.

TXZ004-006>008-010-012-014-016-OKZ002-221500-
TEXAS PANHANDLE/OKLAHOMA PANHANDLE

CITY           SKY/WX    TMP DP  RH WIND       PRES   REMARKS
AMARILLO       CLEAR     43  38  82 SW9       29.96F
BORGER         CLEAR     46  40  79 SW8       29.94S
CANADIAN       PTCLDY    40  40  99 CALM      29.94S FOG
DALHART        CLEAR     32  24  72 W8        29.95F WCI  25
DUMAS            N/A     38  29  72 SW14      29.93F WCI  29
GUYMON         CLEAR     33  27  78 S5        29.89F WCI  29
HEREFORD       CLEAR     42  40  91 MISG      29.98S
PAMPA          CLEAR     42  41  95 SW10      29.95S FOG
PERRYTON       CLEAR     40  37  89 SW7       29.91S
$$

TXZ026-029-035-045-048-221500-
SOUTHERN PANHANDLE/SOUTH PLAINS/ROLLING PLAINS

CITY           SKY/WX    TMP DP  RH WIND       PRES   REMARKS
CHILDRESS      FOG       44  43  96 W5        29.97S VSB 1/4
SEMINOLE       CLOUDY    52  51  96 NW3       30.00R
LUBBOCK        CLOUDY    46  43  89 CALM      29.98R
PLAINVIEW      MOCLDY    40  39  98 CALM      29.96S FOG
SNYDER         CLOUDY    57  57  99 CALM      29.97F THUNDER FOG
$$

TXZ052-054-060>062-072-078-127-140-154-169-221500-
PERMIAN BASIN/CONCHO VALLEY/BIG COUNTRY/EDWARDS PLATEAU

CITY           SKY/WX    TMP DP  RH WIND       PRES   REMARKS
ABILENE        MOCLDY    62  59  90 SE13      29.96F
BIG SPRING     CLOUDY    59  56  91 N3        29.98S THUNDER
BRADY          MOCLDY    63  63 100 SE12      29.96R
BROWNWOOD      CLOUDY    64  63  94 SE8       29.99R
JUNCTION       CLOUDY    64  61  90 E6        29.95F
MIDLAND        CLOUDY    58  55  90 CALM      29.95R FOG
ODESSA         CLOUDY    56  53  90 N3        29.97R FOG
SAN ANGELO     CLOUDY    62  60  93 CALM      29.95S
SONORA         LGT RAIN  64  63  94 S8        29.99S
SWEETWATER     CLOUDY    62  62 100 SE9       29.99R
WINK           CLOUDY    55  51  86 E6        29.95S
$$

TXZ055-058-074-075-080-082-221500-
FAR WEST/SOUTHWEST MOUNTAINS/TRANS PECOS

CITY           SKY/WX    TMP DP  RH WIND       PRES   REMARKS
ALPINE         CLOUDY    44  42  92 SW3       30.05R
DRYDEN           N/A     61  60  97 S5        29.91R
EL PASO        MOCLDY    51  42  71 NW6       30.03R
FORT STOCKTON  CLOUDY    52  49  89 W5        29.96R
GUADALUPE PASS LGT RAIN  44  43  96 E15       30.04R VSB<1/4
MARFA          CLOUDY    41  36  81 NE7       30.01S
PECOS          CLOUDY    50  48  94 S6        29.97R FOG
PRESIDIO       FAIR      52  46  80 S5        29.96R
$$

TXZ014-016-019-021>030-083-221500
TEXAS TECH WEST TEXAS MESONET/TEXAS PANHANDLE/NORTHERN SOUTH PLAINS

CITY           SKY/WX    TMP DP  RH WIND       PRES   REMARKS
ABERNATHY 5ENE   N/A     43  42  98 W2        29.98S
AMARILLO 9NNE    N/A     47  41  82 SW6       29.94F
AMARILLO 7SSE    N/A     38  36  91 W8        29.97S WCI  33
AMHERST 1NE      N/A     41  38  87 NW6       29.98S
BOOTLEG 11WNW    N/A     37  36  96 SW10      30.00F WCI  30
CANADIAN 6E      N/A     43  43  99 SE5       29.93F
CAPROCK CYN SP   N/A     42  41  97 S5        29.97R
CHILDRESS 2NNE   N/A     44  43  99 W8        29.96S
CLARENDON 2WSW   N/A     40  38  93 CALM      29.95F
CLAUDE 12SW      N/A     46  43  88 W3        29.96S
DIMMITT 2NE      N/A     44  41  88 SW12      29.98F
FLOYDADA 2NNE    N/A     44  44  99 SW3       29.97F
FRIONA 2NE       N/A     42  40  93 SW7       29.99F
GOODLETT 3W      N/A     45  44  95 S2        29.96S
HART 3N          N/A     38  36  92 W6        29.98F WCI  33
HEREFORD 2NW     N/A     41  37  87 SW7       29.97F
MCLEAN 1E        N/A     37  37  98 S3        29.94F
MEMPHIS 1NE      N/A     44  44  98 CALM      29.96F
MULESHOE 2SSW    N/A     36  33  88 SW3       30.00R
OLTON 6S         N/A     41  38  89 W5        29.98S
PALO DURO SP     N/A     45  41  88 SW3       29.98S
PAMPA 2E         N/A     45  42  89 SW8       29.94F
PLAINVIEW 1S     N/A     40  40  99 SW5       29.97S
SILVERTON 7ESE   N/A     44  43  97 W10       29.97S
TULIA 2ENE       N/A     40  39  97 W8        29.97S WCI  35
TURKEY 2WSW      N/A     41  40  94 SE2       29.96S
UMBARGER 3NNE    N/A     40  37  89 SW9       29.97S WCI  34
$$

TXZ033>036-039>041-045>048-221500
TEXAS TECH WEST TEXAS MESONET/SOUTH PLAINS

CITY           SKY/WX    TMP DP  RH WIND       PRES   REMARKS
AIKEN 3WSW       N/A     41  41 100 W3        29.99S
ANTON 6SSW       N/A     45  41  88 NW2       29.99S
BROWNFIELD 2S    N/A     49  45  87 N2        29.99R
DENVR CTY 7WNW   N/A     49  44  81 NW6       30.00S
GAIL 2ESE      LGT RAIN  53  51  93 SE5       29.97R
LAMESA 2SE       N/A     53  52  95 E3        29.98R
LEVELLAND 4S     N/A     45  40  82 NW6       29.99S
LUBBOCK 3WNW     N/A     46  43  86 NW1       29.99R
MORTON 1ENE      N/A     43  40  89 S2        30.00S
ODONNELL 1N      N/A     48  45  91 N3        29.98R
PLAINS 3N        N/A     46  42  85 W5        30.01R
RALLS 1SE        N/A     48  47  95 NW2       29.99R
REESE CENTER     N/A     45  42  89 NW6       29.98S
SEAGRAVES 1SW    N/A     50  47  91 NW5       30.00R
SEMINOLE 2NNE    N/A     51  49  91 NW3       29.99R
SLATON 2NE       N/A     47  45  91 NW2       29.99R
SNYDER 3E        N/A     57  56  98 S1        29.96S
SUNDOWN 8SW      N/A     45  40  85 NW3       30.00S
TAHOKA 3NNE      N/A     48  45  89 NW2       29.99R
WOLFFORTH 6SSW   N/A     47  45  91 NW3       29.99S
$$

TXZ031-032-036>038-042>044-221500-
TEXAS TECH WEST TEXAS MESONET/ROLLING PLAINS

CITY           SKY/WX    TMP DP  RH WIND       PRES   REMARKS
ASPERMONT 3NE    N/A     52  50  93 NW1       29.97S
FLUVANNA 3WNW    N/A     57  54  92 E2        29.97S
GRAHAM 5SSW      N/A     49  45  87 N2        29.98R
GUTHRIE 10WSW    N/A     49  46  90 E3        29.96S
HASKELL 1NW      N/A     62  60  93 S7        29.95S
JAYTON 1SSE      N/A     50  48  92 NE2       29.97S
KNOX CITY 3NW    N/A     51  48  89 N5        29.97S
LK A HENRY 1NW   N/A     51  48  92 CALM      29.97S
NORTHFIELD 1S    N/A     41  41  99 SW2       29.97S
ODELL 4ENE     LGT RAIN  49  49  99 SW3       29.96S
PADUCAH 10SW     N/A     44  43  96 NW3       29.97S
POST 1NE         N/A     51  48  88 W5        29.98R
RRING SPRGS 3N   N/A     48  47  99 SE2       29.97S
SEYMOUR 3NW      N/A     61  59  91 S7        29.95S
SPUR 1W          N/A     48  46  91 NW1       29.96S
WEINERT 2NNE     N/A     60  59  96 S2        29.96S
$$

TXZ052-054-060>062-072-078-127-140-154-169-221500-
TEXAS TECH WEST TEXAS MESONET/PERMIAN BASIN/
CONCHO VALLEY/BIG COUNTRY/EDWARDS PLATEAU

CITY           SKY/WX    TMP DP  RH WIND       PRES   REMARKS
COYANOSA 2N      N/A     49  48  95 W2        29.96S
JUNCTION 1SSW    N/A     64  62  91 SE2       29.96R
MERTZON 3NNE     N/A     62  61  94 SE2       29.96S
SAN ANGELO 7NW   N/A     62  59  90 E6        29.95S
STRLNG CT 4WSW   N/A     59  58  96 E1        29.97R
ST LAWRNCE 5SW   N/A     59  58  97 E3        29.95R
SWEETWATR 11SW   N/A     61  60  96 SE10      29.98R
WALL 1E          N/A     65  59  80 SE7       29.96S
$$

TXZ055-058-074-075-080-082-221500-
TEXAS TECH WEST TEXAS MESONET/FAR WEST/SOUTHWEST MOUNTAINS/TRANS PECOS

CITY           SKY/WX    TMP DP  RH WIND       PRES   REMARKS
PRSMN GAP BBNP   N/A     53  53  98 N3        29.95R
GUADLPE MTN NP   N/A     45  39  79 NW9       30.02F
$$


USA.gov is the U.S. government's official web portal to all federal, state and local government web resources and services.